User: anonymous   Login
Location: Luz Observatory
(34.5000°N, 117.2833°W)
Time: 20:29:44
(UTC-07:00)
Language:

Okean 3 Rocket - Orbit

View from above orbital plane
View from above orbital plane
View from above satellite
View from above satellite

Ground track
Ground track

The orbit data is extracted from the following two-line orbital elements,

1 21398U 91039B   15180.79618044  .00000142  00000-0  15775-4 0  9995
2 21398 082.5220 174.8376 0022095 021.2967 033.1067 14.79486390297688
Epoch (UTC): 29 June 2015 19:06:29
Eccentricity: 0.0022095
inclination: 82.5220°
perigee height: 615 km
apogee height: 646 km
right ascension of ascending node: 174.8376°
argument of perigee: 21.2967°
revolutions per day: 14.79486390
mean anomaly at epoch: 33.1067°
orbit number at epoch: 29768

The dashed part of the orbit path shows where the satellite is in the earth's shadow,  

DLR